LRBM Weather Reports


Display with metric or nautical units.
time (UTC)temp
F
wind
direction
speed
MPH
gust
MPH
rain 1hr
in
rain 24hr
in
rain mn
in
humidity
%
barometer
mb
20260504190335 61 340 6.0 0.0 0.00 0.00 0.00 45 1016.0
20260504184835 61 1.0 0.0 0.00 0.00 0.00 48 1016.0
20260504183346 61 1.0 0.0 0.00 0.00 0.00 48 1016.0
20260504181835 64 360 3.0 0.0 0.00 0.00 0.00 43 1015.0
20260504180335 64 360 3.0 0.0 0.00 0.00 0.00 43 1015.0
20260504174835 68 350 5.0 0.0 0.00 0.00 0.00 38 1015.0
20260504173336 68 350 5.0 0.0 0.00 0.00 0.00 38 1015.0
20260504171835 73 300 3.0 0.0 0.00 0.00 0.00 27 1015.0
20260504170335 73 300 3.0 0.0 0.00 0.00 0.00 27 1015.0
20260504160336 75 270 9.0 0.0 0.00 0.00 0.00 24 1015.0
20260504150335 77 280 9.0 0.0 0.00 0.00 0.00 21 1015.0
20260504140336 77 280 9.0 0.0 0.00 0.00 0.00 21 1016.0
20260504130335 77 270 13.0 0.0 0.00 0.00 0.00 22 1017.0
20260504110336 75 270 14.0 0.0 0.00 0.00 0.00 27 1018.0
20260504100335 73 270 14.0 0.0 0.00 0.00 0.00 29 1018.0
20260504081835 64 250 7.0 0.0 0.00 0.00 0.00 46 1019.0
20260504080335 64 250 7.0 0.0 0.00 0.00 0.00 46 1019.0
20260504070336 57 270 3.0 0.0 0.00 0.00 0.00 55 1020.0
20260504050345 48 90 2.0 0.0 0.00 0.00 0.00 76 1020.0
20260504044836 45 80 3.0 0.0 0.00 0.00 0.00 81 1020.0
20260504043335 45 80 3.0 0.0 0.00 0.00 0.00 81 1020.0
20260504041835 41 1.0 0.0 0.00 0.00 0.00 87 1020.0
20260504040335 41 1.0 0.0 0.00 0.00 0.00 87 1020.0
20260504034836 39 0 0.0 0.0 0.00 0.00 0.00 93 1019.0
20260504033335 39 0 0.0 0.0 0.00 0.00 0.00 93 1019.0
20260504031835 39 2.0 0.0 0.00 0.00 0.00 93 1019.0
20260504030455 39 2.0 0.0 0.00 0.00 0.00 93 1019.0
20260504024836 41 2.0 0.0 0.00 0.00 0.00 87 1019.0
20260504023335 41 2.0 0.0 0.00 0.00 0.00 87 1019.0
20260504021835 41 80 3.0 0.0 0.00 0.00 0.00 87 1019.0
20260504020335 41 80 3.0 0.0 0.00 0.00 0.00 87 1019.0
20260504014835 41 2.0 0.0 0.00 0.00 0.00 87 1019.0
20260504013340 41 2.0 0.0 0.00 0.00 0.00 87 1019.0
20260504011954 43 0 0.0 0.0 0.00 0.00 0.00 81 1019.0
20260504010335 43 0 0.0 0.0 0.00 0.00 0.00 81 1019.0
20260504004955 43 100 3.0 0.0 0.00 0.00 0.00 81 1019.0
20260504003335 43 100 3.0 0.0 0.00 0.00 0.00 81 1019.0
20260504001835 43 90 3.0 0.0 0.00 0.00 0.00 81 1019.0
20260504000336 43 90 3.0 0.0 0.00 0.00 0.00 81 1019.0
20260503234915 46 1.0 0.0 0.00 0.00 0.00 76 1019.0
20260503233335 46 1.0 0.0 0.00 0.00 0.00 76 1019.0
20260503231839 46 60 3.0 0.0 0.00 0.00 0.00 76 1019.0
20260503230347 46 60 3.0 0.0 0.00 0.00 0.00 76 1019.0
20260503224835 46 1.0 0.0 0.00 0.00 0.00 71 1019.0
20260503223347 46 1.0 0.0 0.00 0.00 0.00 71 1019.0
20260503221852 50 50 3.0 0.0 0.00 0.00 0.00 67 1019.0
20260503220417 50 50 3.0 0.0 0.00 0.00 0.00 67 1019.0
20260503214842 50 50 5.0 0.0 0.00 0.00 0.00 67 1019.0
20260503213335 50 50 5.0 0.0 0.00 0.00 0.00 67 1019.0
20260503211836 50 2.0 0.0 0.00 0.00 0.00 67 1019.0
20260503210335 50 2.0 0.0 0.00 0.00 0.00 67 1019.0
20260503204842 50 40 3.0 0.0 0.00 0.00 0.00 67 1019.0
20260503203454 50 40 3.0 0.0 0.00 0.00 0.00 67 1019.0
20260503201835 50 10 2.0 0.0 0.00 0.00 0.00 67 1019.0
20260503200345 50 10 2.0 0.0 0.00 0.00 0.00 67 1019.0
20260503194901 54 2.0 0.0 0.00 0.00 0.00 58 1019.0
20260503193455 54 2.0 0.0 0.00 0.00 0.00 58 1019.0
20260503191835 55 2.0 0.0 0.00 0.00 0.00 55 1018.0